SB KEPS @ AMSAT $ORB10126.N 2Line Orbital Elements 10126.AMSAT
HR AMSAT ORBITAL ELEMENTS FOR AMATEUR SATELLITES IN NASA FORMAT FROM WA5QGD FORT WORTH,TX May 6, 2010 Send Subscribe/unsubscribe to KEPS at http://www.amsat.org/mailman/listinfo/keps BID: ORB10126.N
DECODE 2-LINE ELSETS WITH THE FOLLOWING KEY: 1 AAAAAU 00 0 0 BBBBB.BBBBBBBB .CCCCCCCC 00000-0 00000-0 0 DDDZ 2 AAAAA EEE.EEEE FFF.FFFF GGGGGGG HHH.HHHH III.IIII JJ.JJJJJJJJKKKKKZ KEY: A-CATALOGNUM B-EPOCHTIME C-DECAY D-ELSETNUM E-INCLINATION F-RAAN G-ECCENTRICITY H-ARGPERIGEE I-MNANOM J-MNMOTION K-ORBITNUM Z-CHECKSUM
TO ALL RADIO AMATEURS BT
AO-07 1 07530U 74089B 10126.46400216 -.00000027 00000-0 10000-3 0 7695 2 07530 101.4025 143.9479 0012158 357.4033 002.6979 12.53578321623224 FO-29 1 24278U 96046B 10126.39484705 -.00000067 00000-0 -30119-4 0 3041 2 24278 098.5153 321.3011 0349940 232.2061 124.6919 13.52949438677451 SO-33 1 25509U 98061B 10126.74147376 .00000027 00000-0 -84311-5 0 7051 2 25509 031.4353 022.8913 0354486 287.3658 068.8519 14.28302621602123 RS-22 1 27939U 03042A 10126.62078325 .00000135 00000-0 34740-4 0 1568 2 27939 097.8984 353.8583 0013432 186.4872 173.6158 14.63412966352879 VO-52 1 28650U 05017B 10126.53540586 .00000738 00000-0 99406-4 0 4962 2 28650 097.6945 181.5868 0028037 054.8542 305.5865 14.81740678270522 SO-67 1 35870U 09049F 10126.67628413 .00001492 00000-0 70579-4 0 7000 2 35870 097.3351 176.9017 0001660 223.0467 283.2495 15.20867965 35146 HO-68 1 36122U 09072B 10126.59571712 -.00000045 00000-0 00000 0 0 2788 2 36122 100.4723 187.4408 0007916 071.4311 288.7667 13.16280519 18745 UO-11 1 14781U 84021B 10126.23470569 .00000141 00000-0 25836-4 0 2326 2 14781 098.0577 177.8404 0009895 019.2472 340.9148 14.79797313405601 AO-16 1 20439U 90005D 10126.05165107 .00000027 00000-0 25702-4 0 8872 2 20439 098.3291 085.6249 0010118 295.2944 064.7200 14.31859375 59359 LO-19 1 20442U 90005G 10125.98627788 .00000152 00000-0 72047-4 0 7978 2 20442 098.2899 091.5363 0010932 288.4752 071.5264 14.32091690 59517 AO-27 1 22825U 93061C 10126.01046604 .00000094 00000-0 53772-4 0 5211 2 22825 098.4833 075.0588 0008923 039.4531 320.7319 14.29296117866025 IO-26 1 22826U 93061D 10126.78338843 .00000027 00000-0 27248-4 0 2598 2 22826 098.4771 076.4280 0009530 031.9386 328.2377 14.29551481866240 GO-32 1 25397U 98043D 10126.19888030 .00000104 00000-0 64123-4 0 1781 2 25397 098.3129 135.9625 0001890 061.5178 298.6183 14.23177485614074 NO-44 1 26931U 01043C 10126.50756035 .00000231 00000-0 12240-3 0 4511 2 26931 067.0530 311.3595 0005745 263.6105 096.4345 14.29596482448798 SO-50 1 27607U 02058C 10125.94150947 .00000143 00000-0 44323-4 0 01681 2 27607 064.5575 124.8328 0034433 096.3495 264.1534 14.71534251396160 CO-55 1 27844U 03031E 10126.54309652 .00000085 00000-0 59533-4 0 8403 2 27844 098.7098 136.1157 0009229 296.4077 063.6164 14.20704073355174 CO-57 1 27848U 03031J 10126.00310635 .00000043 00000-0 40467-4 0 7893 2 27848 098.7136 134.6692 0009346 302.6946 057.3335 14.20496582355053 AO-51 1 28375U 04025K 10125.50507251 .00000034 00000-0 23116-4 0 6687 2 28375 098.0615 121.4360 0082818 226.9589 132.4647 14.40682433307362 GENESAT1 1 29655U 06058C 10126.80868312 .00119329 00000-0 46761-3 0 456 2 29655 040.0185 297.5044 0005698 005.0285 355.0566 15.85746024193405 CP3 1 31129U 07012N 10126.11841578 .00000200 00000-0 56701-4 0 5699 2 31129 097.9425 167.9324 0102703 005.2075 355.0188 14.52248426161756 CO-65 1 32785U 08021C 10126.29404065 .00000695 00000-0 94935-4 0 6739 2 32785 097.8987 191.7944 0016114 062.7834 297.4988 14.81645326109280 KKS-1 1 33493U 09002B 10126.77036930 .00000743 00000-0 10291-3 0 4555 2 33493 098.0812 245.9202 0018633 275.8151 084.0953 14.80969079 69351 SOHLA-1 1 33496U 09002E 10126.48888826 .00000081 00000-0 21859-4 0 953 2 33496 098.0547 236.1120 0006451 345.8942 014.2067 14.69490304 68752 NOAA-10 1 16969U 86073A 10126.09512069 .00000080 00000-0 50530-4 0 566 2 16969 098.6587 155.4523 0011955 339.3598 020.7095 14.27415306229573 NOAA-11 1 19531U 88089A 10126.30650089 .00000166 00000-0 10862-3 0 694 2 19531 098.7677 216.0426 0010718 268.9269 091.0706 14.14924633115215 NOAA-12 1 21263U 91032A 10126.24072470 -.00000016 00000-0 12138-4 0 5549 2 21263 098.7661 139.4045 0011498 291.2997 068.6957 14.25630372986424 MET-3/5 1 21655U 91056A 10125.94155857 .00000051 00000-0 10000-3 0 8048 2 21655 082.5561 338.4881 0014839 094.2761 266.0084 13.17023450900110 MET-2/21 1 22782U 93055A 10125.91581131 .00000044 00000-0 26250-4 0 07682 2 22782 082.5454 285.9782 0022811 157.7636 202.4523 13.83643973842235 OKEAN-4 1 23317U 94066A 10126.07873904 .00000355 00000-0 40695-4 0 2230 2 23317 082.5415 033.1618 0023137 024.9487 335.2789 14.82810698840214 NOAA-14 1 23455U 94089A 10126.31608471 .00000039 00000-0 44112-4 0 460 2 23455 098.8786 207.3481 0009463 000.5513 359.5676 14.13785424791588 NOAA-15 1 25338U 98030A 10126.30058276 -.00000024 00000-0 82511-5 0 3669 2 25338 098.6175 113.9832 0010272 191.5249 168.5711 14.24822344622787 RESURS 1 25394U 98043A 10125.70308426 -.00000391 00000-0 -15213-3 0 4957 2 25394 098.3054 146.0935 0001546 028.6981 331.4273 14.24198598614300 FENGYUN1 1 25730U 99025A 10125.95874208 .00000055 00000-0 57231-4 0 357 2 25730 098.7853 092.0145 0024963 028.8422 331.4033 14.08224792565743 OKEAN-0 1 25860U 99039A 10126.04635224 .00000091 00000-0 21295-4 0 9844 2 25860 097.8289 100.1858 0000835 106.6958 253.4359 14.73636319580692 NOAA-16 1 26536U 00055A 10126.29350599 .00000069 00000-0 62494-4 0 8436 2 26536 099.1724 142.7732 0011475 095.2232 265.0216 14.12557453495910 NOAA-17 1 27453U 02032A 10126.33383397 .00000062 00000-0 44871-4 0 8475 2 27453 098.4343 178.4557 0010728 258.6912 101.3096 14.24154643408749 NOAA-18 1 28654U 05018A 10126.33160093 .00000405 00000-0 24810-3 0 3311 2 28654 098.9478 072.7223 0014549 168.1023 192.0499 14.11353948255532 NOAA-19 1 33591U 09005A 10126.31053242 .00000264 00000-0 17076-3 0 5290 2 33591 098.7871 069.3270 0014936 050.4556 309.7925 14.11050794 64005 HUBBLE 1 20580U 90037B 10124.36202321 .00000601 00000-0 33174-4 0 5604 2 20580 028.4679 165.9513 0003653 101.8537 258.2463 15.00964583898168 ISS 1 25544U 98067A 10126.72202001 .00023462 00000-0 16668-3 0 1038 2 25544 051.6446 083.3867 0009651 282.3663 141.3713 15.73727181656946 CO-58 1 28895U 05043F 10125.62441332 .00000258 00000-0 63296-4 0 5753 2 28895 098.0209 011.4979 0019001 060.5741 299.7342 14.59885243240772 FALCON 1 30776U 07006E 10126.78225945 .00000791 00000-0 59652-4 0 8210 2 30776 035.4343 295.6670 0002028 233.1826 126.8709 15.03637892173827 MAST 1 31126U 07012K 10125.61238337 .00000057 00000-0 23414-4 0 8578 2 31126 097.9410 169.8167 0094545 359.2665 000.8380 14.53581314161873 CAPE1 1 31130U 07012P 10125.82952505 .00000250 00000-0 68151-4 0 08792 2 31130 097.9429 167.5162 0103088 006.3724 353.8737 14.52171289161510 COMPASS 1 32787U 08021E 10126.30421048 .00000772 00000-0 10415-3 0 6649 2 32787 097.8962 191.6316 0017021 063.7209 296.5748 14.81853573109292 AAUSAT2 1 32788U 08021F 10126.17625239 .00000811 00000-0 10872-3 0 6576 2 32788 097.8961 191.6240 0016631 064.9482 295.3421 14.81994910109285 DO-64 1 32789U 08021G 10125.91891584 .00001145 00000-0 15028-3 0 6733 2 32789 097.9030 191.7962 0016774 065.0172 295.2760 14.82115909109247 CO-66 1 32791U 08021J 10126.18503621 .00000364 00000-0 52930-4 0 6554 2 32791 097.8972 191.5336 0017370 061.8040 298.4888 14.81641738109236 RS-30 1 32953U 08025A 10126.75772503 .00000010 00000-0 00000 0 0 6664 2 32953 082.5022 055.4373 0017926 189.2097 170.8657 12.43005032 88595 TACSAT-3 1 35001U 09028A 10126.39347033 .00009430 00000-0 22359-3 0 2803 2 35001 040.4527 105.0961 0020898 048.5049 311.7555 15.41445208 54181 PHARMSAT 1 35002U 09028B 10125.32573709 .00009211 00000-0 21409-3 0 2641 2 35002 040.4682 109.6656 0024043 044.9242 315.3521 15.41993201 54034 HAWKSAT1 1 35003U 09028C 10126.35050343 .00018237 00000-0 38129-3 0 2825 2 35003 040.4562 099.4670 0021563 063.8014 296.5013 15.44755201 54243 CP6 1 35004U 09028D 10126.23908027 .00021758 00000-0 44323-3 0 2773 2 35004 040.4603 099.5017 0020755 065.0602 295.2332 15.45453668 54226 AEROCUB3 1 35005U 09028E 10126.15548826 .00054107 00000-0 96371-3 0 3025 2 35005 040.4684 099.2052 0016504 077.6131 282.6341 15.49079268 54229 DRAGNSAT 1 35690U 09038B 10076.22711312 .05715194 12509-4 31481-3 0 3162 2 35690 051.6170 315.4586 0004999 310.9891 057.3269 16.42150010 36561 POLLUX 1 35693U 09038E 10087.99866888 .23496735 12787-4 17715-3 0 3529 2 35693 051.6099 254.5746 0006270 294.4866 097.5899 16.52338462 38395 CASTOR 1 35694U 09038F 10126.65924850 .00077551 13688-4 18659-3 0 3515 2 35694 051.6365 061.5427 0004772 064.5909 295.5591 15.96527898 44412 METEOR-M 1 35865U 09049A 10126.68536990 .00000176 00000-0 10000-3 0 2682 2 35865 098.7608 180.7736 0003094 109.9901 250.1581 14.21830012 32823 RS-38 1 35869U 09049E 10126.80203282 .00000177 00000-0 10000-3 0 2754 2 35869 098.7605 180.9181 0005369 118.7914 241.3772 14.21980863 32845 /EX